RH
5 5 5 5 5 5 5 5 5 5 4 4 4 3 3 3 3 2 2 3 3 4 4 5 5 5 5 6 6 6 5 4 4 4 5 6 7 6 5 5 5 4 4 4 3 3 2 2 2 2 6 9 12 24 32 40 58 75 86 91 96 99 94 88 82 77 76 67 50 41 26 19 28 30 29 36 39 31 25 28 28 29 31 32 37 44 46 44
6 6 6 6 6 6 5 5 5 5 5 5 4 4 3 3 3 2 2 3 3 4 4 5 5 6 6 6 6 6 6 6 5 5 5 6 6 7 6 6 5 5 4 4 4 3 3 2 2 3 5 10 10 22 32 33 52 76 85 89 96 102 95 90 91 85 84 78 61 43 25 24 34 34 32 38 47 40 28 30 32 32 34 34 40 47 48 47
6 6 6 6 6 6 6 6 5 5 5 5 5 4 4 3 3 3 3 2 3 3 4 5 5 6 6 6 6 6 6 6 6 6 6 6 6 7 6 6 5 5 5 4 4 3 3 2 2 4 6 11 14 25 35 36 54 73 84 90 89 93 90 86 90 89 89 84 74 56 33 31 38 38 36 36 48 49 34 29 32 34 36 37 42 47 50 49
7 7 7 7 7 7 7 6 6 6 6 5 5 5 4 4 3 3 3 2 3 3 4 5 5 6 6 6 6 6 6 6 6 5 6 6 6 7 7 7 5 5 6 5 4 3 4 3 3 5 8 14 18 25 36 49 65 72 85 95 83 79 82 80 82 88 89 83 78 64 42 38 44 43 39 35 46 54 42 30 30 34 37 41 45 47 49 47
8 8 8 8 8 7 7 7 7 6 6 6 6 5 5 4 4 3 3 3 3 3 4 5 5 6 7 6 6 5 6 5 5 5 6 6 6 6 7 7 6 5 6 5 5 4 4 3 3 5 8 15 20 25 38 54 69 81 94 96 83 75 75 75 80 88 85 77 80 73 52 41 46 47 41 38 43 46 38 28 29 33 39 46 49 49 48 46
8 9 8 8 8 8 8 8 7 7 7 7 6 6 5 5 4 3 3 3 3 3 4 5 6 7 7 7 6 5 5 5 5 5 6 6 6 6 6 7 7 5 5 5 5 5 4 4 4 5 10 16 21 29 43 54 65 85 97 93 86 79 71 68 79 91 86 82 87 80 58 40 45 51 45 41 39 37 31 27 28 32 41 48 51 52 51 47
9 9 9 8 8 8 8 8 8 8 8 7 7 7 6 5 5 4 3 3 3 3 4 5 6 7 8 8 8 7 5 4 5 5 5 6 6 6 7 7 7 6 5 6 6 5 5 4 4 6 10 15 22 33 45 56 66 78 88 88 87 84 71 63 80 96 92 94 94 82 62 44 46 55 49 43 38 35 33 29 28 31 40 46 49 52 51 47
9 9 9 9 9 9 9 9 9 9 9 8 8 7 7 6 5 5 4 3 3 3 4 5 6 8 8 8 9 8 6 4 4 4 5 5 6 6 6 7 7 7 5 6 7 6 5 4 4 6 10 14 23 38 43 49 61 69 77 78 77 81 72 62 75 90 92 93 88 81 70 51 50 58 54 49 44 40 36 33 30 31 39 43 43 47 50 47
9 9 9 9 9 9 9 9 9 9 9 9 9 8 8 7 6 5 4 4 3 3 4 5 6 8 9 9 9 9 7 5 4 4 4 4 5 5 6 7 7 7 6 6 7 7 6 5 5 6 9 12 22 40 41 44 58 65 72 74 69 71 70 61 61 73 86 89 84 84 77 59 55 59 57 55 51 44 39 37 35 33 38 42 40 44 48 47
9 9 9 9 9 9 9 9 10 10 10 10 10 9 8 8 7 6 5 4 4 3 3 5 6 8 9 9 10 10 8 5 4 3 4 4 5 5 5 6 7 7 6 6 6 7 7 6 6 6 7 8 21 39 39 42 57 63 68 72 69 68 68 62 53 57 73 82 86 89 82 70 63 62 59 58 54 48 42 38 38 36 37 42 41 43 48 47
9 9 9 9 9 9 9 10 10 10 10 10 10 10 9 9 8 7 6 5 4 3 4 5 6 8 10 10 10 10 8 6 4 3 3 3 4 5 5 5 6 7 7 6 6 7 8 7 6 6 7 9 19 31 32 36 48 54 58 59 58 61 64 61 53 51 57 66 82 91 87 81 74 68 63 60 54 50 46 37 35 36 37 43 43 43 49 47
9 9 9 9 9 9 10 10 10 11 11 11 11 11 10 10 9 8 7 6 5 4 4 5 6 8 10 11 10 10 8 6 4 3 3 3 3 4 5 5 5 6 6 6 6 7 8 7 7 7 9 13 18 26 28 28 34 39 40 37 37 44 56 55 44 41 43 49 69 85 91 91 83 73 68 64 56 52 51 42 37 39 41 46 44 42 48 48
9 9 9 9 9 9 9 10 10 11 11 11 11 11 11 10 10 9 8 7 6 5 4 5 6 8 10 11 11 10 8 7 5 3 3 2 3 3 4 5 5 5 5 6 7 7 8 8 7 7 9 15 20 26 29 26 32 35 29 27 30 38 48 46 35 38 45 48 61 78 90 98 93 82 75 67 59 53 49 48 45 43 46 48 45 43 48 48
9 9 9 9 9 9 9 9 10 11 11 11 12 12 12 11 11 10 9 8 7 5 4 4 6 8 11 11 11 10 9 7 5 3 3 2 3 3 4 4 4 4 5 5 6 7 8 8 8 7 9 18 24 26 30 33 37 34 28 30 35 41 43 36 30 44 61 64 67 73 81 95 98 94 86 70 63 56 46 50 51 46 49 50 45 44 48 46
8 8 9 9 9 9 9 9 10 10 11 11 12 12 12 12 12 11 10 9 8 6 5 4 6 8 11 12 11 10 9 7 5 3 2 3 3 3 3 4 4 4 5 5 6 7 7 8 9 8 8 17 26 28 30 34 34 31 37 41 39 40 41 35 31 52 78 81 79 73 72 87 94 98 96 72 64 64 49 48 51 48 49 50 49 45 45 45
8 8 8 8 8 8 9 9 10 10 10 11 12 12 12 13 12 11 11 10 9 7 6 5 7 9 10 12 11 11 10 7 5 4 3 3 2 3 3 3 4 4 4 5 6 6 7 8 9 9 9 14 25 31 29 32 36 40 46 46 38 35 39 39 37 62 90 89 87 81 74 86 89 94 100 74 59 67 58 47 48 49 45 48 52 47 44 45
7 7 7 7 8 8 9 9 9 10 10 11 11 12 12 13 13 12 12 10 9 8 7 6 7 9 11 12 12 11 11 9 6 4 3 3 2 3 3 3 3 3 4 5 7 7 7 9 10 9 10 13 20 26 26 31 41 45 41 39 39 36 39 41 39 66 96 93 91 90 85 93 93 94 102 79 58 65 65 51 47 46 41 43 48 46 46 46
6 6 6 6 7 8 8 9 9 9 10 10 11 11 12 13 13 12 12 11 10 9 7 6 6 9 12 13 13 12 11 10 7 5 3 3 3 3 2 3 3 3 3 5 7 8 8 10 11 11 11 14 19 21 23 29 36 40 37 33 38 37 39 43 43 67 99 100 95 96 95 98 97 96 102 89 66 64 69 62 56 49 42 42 40 41 46 46
5 6 6 6 6 7 7 8 9 9 9 10 10 11 12 13 13 13 12 12 11 9 7 6 6 8 12 13 14 13 12 11 8 6 4 3 3 3 3 3 3 3 3 5 8 8 9 10 11 14 19 21 20 17 19 28 36 45 47 44 46 46 45 47 47 64 90 99 98 100 99 99 98 95 100 99 81 74 76 73 72 65 52 46 37 35 43 48
5 5 5 6 6 6 7 7 8 9 9 9 10 10 11 12 13 13 13 13 11 9 8 6 5 7 10 13 15 14 12 11 9 7 4 3 3 2 3 3 3 3 2 5 8 8 9 13 17 24 29 28 24 18 18 26 39 50 54 53 53 52 51 50 46 54 75 90 95 96 95 95 98 96 97 100 91 90 89 80 78 72 61 56 43 36 44 54
7 6 6 6 6 6 7 7 7 8 8 9 9 10 11 12 13 13 13 13 11 10 8 7 5 6 9 13 16 15 13 12 10 7 4 3 3 2 3 3 2 3 3 4 7 9 11 17 26 32 33 30 26 23 21 25 36 45 50 54 55 53 52 48 39 39 54 73 84 91 94 92 94 97 97 96 94 97 97 89 82 70 61 61 53 43 46 59
11 11 10 9 9 9 9 8 8 8 8 9 10 11 11 12 13 13 13 13 11 10 8 6 6 6 9 14 16 16 14 13 11 8 5 3 3 2 3 3 3 3 3 4 6 12 16 19 23 25 24 23 22 23 24 27 33 41 55 66 70 70 63 54 44 33 36 52 67 81 93 95 88 88 92 93 93 96 97 96 93 81 70 64 57 47 43 57
15 15 15 14 14 13 13 12 12 12 11 11 12 12 13 13 13 13 13 12 11 10 8 7 7 7 9 14 17 17 15 14 12 9 6 4 3 3 3 3 3 3 3 4 7 14 17 16 16 16 15 16 20 22 22 27 31 41 65 78 81 84 78 72 68 55 43 43 52 66 83 94 90 85 90 93 95 97 98 98 98 96 90 76 64 54 44 52
15 15 16 16 16 16 16 15 15 15 14 14 14 14 14 13 13 13 12 11 10 9 8 7 7 9 12 16 18 18 16 14 13 10 7 5 3 3 3 2 3 3 3 4 7 11 13 12 13 14 12 12 20 21 17 23 29 46 80 93 89 93 89 86 89 82 67 53 50 54 61 76 86 89 91 93 96 97 96 96 96 97 98 91 78 69 55 49
14 15 15 16 16 16 16 16 16 16 15 15 14 14 13 13 13 12 11 11 10 9 8 9 11 14 15 18 20 20 18 16 13 10 8 6 4 3 3 3 3 3 4 4 6 8 9 11 14 12 10 13 22 23 19 24 29 47 79 86 82 93 97 95 95 89 80 69 62 56 51 56 68 79 85 89 93 93 92 95 97 94 95 98 90 81 67 51
12 12 13 14 14 15 16 16 16 15 15 14 13 12 11 11 11 11 10 10 9 9 10 13 16 17 17 18 21 22 19 15 13 11 8 6 4 4 3 3 3 4 5 6 6 7 8 11 13 13 14 17 19 19 20 25 29 44 67 71 71 84 93 97 94 86 82 76 72 66 59 56 56 62 72 78 82 86 88 93 100 98 94 99 97 88 79 61
19 17 15 14 13 12 12 13 13 13 13 12 11 10 9 9 9 9 9 9 9 12 14 16 18 19 19 19 20 23 21 17 14 12 9 7 6 5 4 4 4 5 7 8 7 9 12 13 14 15 17 18 20 24 25 23 24 34 48 58 64 70 81 90 86 82 83 79 76 74 70 68 64 60 62 68 72 75 82 89 96 98 93 96 101 95 88 74
24 26 26 24 21 17 14 12 10 10 10 9 8 8 8 8 8 9 9 8 11 14 15 18 20 20 20 20 19 21 23 22 17 13 10 8 7 6 5 5 6 8 10 10 9 13 18 17 18 18 19 25 33 37 29 20 22 27 30 36 46 53 64 73 73 76 80 76 76 76 71 71 74 69 64 65 67 67 72 81 87 91 89 88 94 99 97 85
20 24 26 27 27 27 24 19 15 11 9 9 8 8 8 8 9 9 9 10 13 15 16 19 20 19 19 21 21 22 25 24 18 15 12 10 9 9 8 7 9 11 12 12 13 18 22 21 22 22 25 35 40 35 25 18 22 28 25 24 32 44 54 57 56 59 59 55 58 62 61 63 69 72 68 64 64 63 66 72 79 86 88 84 83 92 100 94
19 20 21 21 23 27 28 27 25 19 15 13 11 10 10 9 10 10 9 10 13 14 15 16 16 17 17 18 21 22 24 25 21 17 14 12 11 11 11 11 12 13 13 14 15 20 24 25 26 28 33 39 35 27 23 20 20 20 19 20 24 36 46 47 43 39 35 35 41 47 47 47 51 59 62 61 57 57 60 64 72 80 85 88 84 82 91 99
22 21 20 19 20 22 24 27 29 26 24 23 21 19 17 14 13 11 9 11 15 15 14 14 16 18 19 19 21 20 21 23 21 17 15 14 14 14 14 14 13 13 14 15 17 22 27 28 29 30 32 33 26 21 19 16 14 13 14 17 20 26 32 35 35 30 28 34 40 41 39 33 34 41 48 51 49 48 50 55 64 73 80 88 89 83 80 88
24 23 22 20 20 20 20 23 24 24 26 28 28 29 27 24 19 14 11 12 15 17 15 15 17 19 20 22 22 22 22 23 21 18 16 15 15 15 15 15 15 14 15 18 21 26 29 29 29 30 30 29 26 23 20 15 11 11 13 15 19 24 25 26 30 28 27 33 37 36 32 27 28 31 32 36 39 39 39 41 50 63 72 80 87 91 85 78
26 24 23 22 21 20 20 20 19 19 21 22 24 29 32 33 27 18 13 12 13 15 14 15 17 18 19 20 21 23 24 24 22 19 18 17 17 17 16 17 19 20 21 24 27 30 31 30 30 32 32 33 35 32 29 24 17 14 17 17 19 24 26 27 31 29 26 29 33 32 28 24 25 27 25 26 28 29 31 33 39 50 62 72 79 89 95 88
26 24 24 24 23 22 21 20 19 17 16 16 18 20 26 34 32 22 16 13 11 12 12 13 16 19 19 18 20 23 23 24 23 21 20 19 19 19 19 22 24 26 29 30 30 33 34 34 35 37 37 37 41 41 38 36 30 25 25 25 27 31 33 35 38 38 34 30 32 32 28 25 27 28 27 25 24 23 23 26 31 41 52 64 71 77 90 99
27 26 25 25 25 24 23 23 21 18 15 14 14 14 19 32 35 26 19 14 11 10 10 11 16 19 20 20 23 23 22 25 25 23 22 22 23 23 25 28 29 32 35 36 36 38 40 40 40 42 40 38 43 47 44 42 39 38 37 36 39 42 41 42 43 43 38 31 30 31 29 28 28 28 27 25 22 21 21 19 21 29 40 53 64 70 77 90
29 29 28 27 27 26 25 25 23 21 17 14 12 12 16 27 33 30 23 17 13 11 9 11 15 17 19 22 24 23 22 25 27 25 25 25 27 27 29 33 35 37 38 37 39 42 45 46 44 43 42 39 44 49 48 43 39 39 42 43 45 47 46 46 47 44 39 36 32 29 31 32 28 29 31 29 27 26 26 24 20 19 25 35 49 62 68 73
31 31 31 30 29 28 27 26 25 23 19 15 12 11 14 21 28 30 27 21 16 12 10 12 15 16 18 21 23 21 20 25 28 28 28 29 30 31 33 37 38 41 41 38 39 43 46 49 46 43 44 43 43 48 49 44 38 37 41 43 46 48 49 49 51 49 44 42 38 31 31 30 28 32 36 35 33 30 31 33 31 24 19 19 27 41 54 60
33 32 32 32 31 30 28 27 26 25 21 17 13 11 13 17 21 26 28 24 19 14 11 12 15 17 18 21 23 21 21 26 30 30 31 32 33 34 37 38 39 42 44 40 42 45 46 49 48 44 45 44 42 47 50 46 41 40 40 40 42 44 44 45 48 49 46 43 41 36 34 33 31 30 32 34 35 36 38 40 39 35 28 20 17 20 30 42
34 33 33 32 32 31 29 28 27 25 23 19 15 12 12 14 15 21 26 26 20 15 12 11 13 15 18 22 24 23 24 28 30 32 34 35 36 39 42 42 41 43 45 45 47 49 46 47 47 45 43 42 40 42 47 47 42 39 38 37 36 36 36 39 40 41 41 40 39 39 42 44 39 30 26 28 32 36 40 44 43 41 37 30 24 19 19 24
32 32 32 32 32 32 31 29 27 26 24 20 16 14 13 13 15 19 26 27 23 17 13 11 12 14 17 20 24 26 28 30 31 33 36 37 38 43 46 45 44 47 49 50 51 50 47 46 45 43 41 40 39 40 44 47 42 36 35 35 34 32 33 36 38 37 38 38 38 40 44 48 44 36 32 31 33 35 36 39 41 40 39 36 32 28 25 23
31 31 32 33 32 32 32 30 28 26 24 21 16 14 12 13 17 21 26 29 27 22 16 12 12 14 16 20 24 27 30 33 34 34 36 38 39 44 47 47 48 52 55 55 54 51 49 47 44 41 39 37 38 38 40 42 39 34 34 35 35 34 33 35 37 37 36 35 35 36 38 41 41 41 42 40 38 38 35 35 36 37 38 39 36 32 32 34
33 32 33 33 32 33 33 32 30 27 25 21 17 15 13 14 17 21 26 30 29 25 20 15 13 14 18 22 24 25 28 33 35 35 37 38 40 45 49 49 50 53 55 55 55 53 49 48 44 40 38 35 35 37 36 35 34 34 36 37 36 37 37 37 38 37 34 33 32 31 31 33 34 36 39 39 37 35 32 32 32 35 38 40 39 35 34 42
37 35 35 34 33 34 34 33 31 28 26 23 19 16 14 14 15 19 26 31 31 28 23 17 14 15 18 21 22 23 25 31 35 35 36 38 40 44 47 49 50 51 53 53 55 55 51 48 44 39 38 36 34 35 34 34 35 36 39 38 38 38 38 38 38 37 35 32 30 30 31 31 31 32 34 35 35 33 29 28 30 36 41 41 40 37 37 47
40 39 38 37 36 35 34 34 32 29 27 24 21 18 15 14 14 17 24 30 31 30 26 19 16 16 17 18 20 21 22 28 33 34 34 37 42 44 45 47 49 49 50 52 54 56 54 51 46 42 42 42 39 39 39 40 41 42 43 40 38 37 36 37 38 38 37 34 30 29 29 29 30 32 33 33 33 31 28 28 30 38 46 48 44 39 40 49
43 43 42 40 39 37 36 35 33 30 28 26 23 19 15 14 13 14 21 26 29 31 29 23 18 17 16 16 19 20 21 27 34 37 36 37 41 44 45 47 49 49 50 51 52 54 55 54 50 48 49 50 49 49 49 50 49 47 46 43 39 36 36 37 37 38 39 36 29 27 28 28 28 29 32 34 33 30 29 29 30 35 45 53 51 44 40 47
46 47 46 44 43 41 39 37 34 32 30 27 25 21 17 15 13 14 17 21 25 30 31 26 21 19 18 17 18 22 24 30 37 42 42 40 40 44 46 47 50 51 51 50 50 51 54 56 53 52 54 54 54 54 55 56 56 55 53 49 44 40 38 36 35 36 39 35 30 27 27 27 26 24 26 30 33 34 34 34 32 30 34 43 49 48 43 43
50 50 49 48 47 44 42 39 36 34 31 28 26 23 19 17 15 14 16 18 21 28 31 29 24 21 20 18 18 22 25 29 36 45 48 46 44 45 47 49 51 53 54 53 50 49 52 55 55 55 56 56 56 56 57 57 57 57 56 54 49 42 36 33 31 34 37 35 31 29 27 27 26 22 21 23 26 31 35 38 38 34 31 31 36 43 46 44
54 53 52 51 50 48 46 43 39 36 33 31 29 25 21 18 15 15 17 18 20 24 28 29 26 22 20 19 19 21 23 26 33 41 49 51 50 49 49 49 50 51 52 52 51 49 49 52 54 55 55 55 54 54 54 53 52 52 53 51 47 39 33 31 30 31 33 34 33 30 29 28 25 22 22 21 20 23 27 31 34 34 33 31 29 32 40 46
56 56 55 54 53 52 50 46 42 39 35 33 31 28 23 19 16 15 15 17 20 22 25 26 26 24 21 19 20 23 26 29 32 37 44 50 52 53 54 52 49 48 48 48 49 46 45 50 52 51 52 53 52 51 49 47 46 47 47 45 41 34 30 31 33 33 33 34 34 31 30 31 28 25 24 24 22 21 20 20 23 26 30 33 31 29 30 38
57 58 59 58 57 57 54 51 46 42 38 35 32 29 24 19 17 16 14 16 19 22 24 26 26 26 23 20 20 24 30 34 37 40 45 51 55 58 60 56 52 51 50 51 51 46 46 52 54 51 52 52 49 48 47 46 46 45 42 41 39 33 29 29 33 36 36 35 35 33 32 35 32 27 26 26 25 23 20 18 18 19 24 29 32 31 28 29
59 61 62 63 62 61 59 56 52 47 42 38 34 30 25 20 16 16 15 15 17 19 23 26 28 27 26 24 21 24 30 35 38 42 48 56 61 62 62 59 56 56 56 56 57 53 51 55 55 53 55 56 52 50 50 50 49 44 41 41 39 36 32 31 34 38 40 40 38 35 36 39 35 30 30 29 26 25 25 23 20 18 19 23 27 28 28 28
61 64 66 68 69 67 64 61 58 54 48 43 38 32 26 21 17 15 16 15 16 17 20 25 28 29 29 27 23 23 28 33 37 40 44 51 57 58 59 58 54 57 60 59 59 59 58 59 59 56 57 59 56 54 54 52 48 44 44 45 44 42 41 40 40 41 43 43 41 40 40 40 36 33 33 30 27 27 28 28 27 23 18 18 20 21 23 27
Wind_Speed
13 14 15 16 17 18 19 19 20 20 20 20 21 21 21 21 21 21 20 20 19 18 17 16 16 15 15 14 13 12 10 8 6 7 8 8 7 7 6 7 8 7 6 6 6 6 6 5 5 4 3 4 5 6 7 8 8 8 10 10 6 5 8 8 7 7 7 7 7 6 4 5 5 4 5 6 8 8 8 6 6 8 8 8 9 8 5 7
13 14 15 16 17 18 19 19 20 20 20 20 20 20 20 20 21 21 20 20 19 18 16 15 14 13 13 13 12 11 11 9 7 6 6 7 7 7 6 7 8 7 7 7 7 7 6 6 5 4 3 2 3 5 5 6 7 7 8 9 7 6 8 9 7 7 6 7 8 5 4 6 6 5 5 7 8 8 8 6 5 7 7 6 8 7 5 7
13 14 15 16 17 18 18 19 19 20 20 20 20 20 20 20 21 21 20 20 19 18 17 15 14 13 13 12 12 11 10 10 8 7 6 6 7 7 7 7 8 8 8 8 8 7 7 6 5 3 4 3 2 4 4 4 6 7 8 8 7 6 8 8 7 8 6 7 9 6 4 5 6 5 5 6 7 7 8 7 6 7 6 4 6 7 5 6
13 14 15 15 16 17 18 18 19 19 20 20 20 20 20 20 21 21 21 20 20 19 17 16 14 13 13 12 12 11 11 10 9 7 6 6 7 8 8 8 8 8 8 9 8 8 7 6 4 4 4 4 3 3 4 4 5 7 7 5 5 3 6 5 5 10 8 7 10 6 4 5 5 5 5 5 6 7 7 6 7 7 6 4 4 5 5 5
12 13 14 15 16 17 17 18 18 19 19 19 20 20 20 20 20 20 20 20 20 19 18 16 15 13 13 13 13 12 11 10 9 7 6 5 7 8 9 8 8 8 9 9 9 9 6 5 4 5 6 5 3 3 4 5 5 6 5 4 3 1 3 2 4 12 9 8 9 5 4 5 5 5 5 6 7 8 7 6 6 7 7 4 3 3 4 4
12 13 14 15 16 16 17 18 19 19 19 19 19 20 20 20 20 20 20 20 20 19 18 17 15 14 13 13 13 13 12 11 9 8 6 5 6 8 9 9 8 8 9 10 10 9 6 5 5 6 7 6 4 3 4 5 6 5 3 3 2 2 1 1 5 12 9 8 7 4 4 5 5 5 5 7 7 8 8 7 6 6 6 5 3 3 3 4
11 12 13 14 15 16 17 17 18 19 19 20 20 20 20 20 20 20 20 20 20 19 18 17 15 14 14 14 14 13 13 11 10 8 7 6 6 7 9 9 8 8 9 10 10 9 7 6 7 7 7 6 5 5 5 6 7 6 4 4 3 4 3 3 5 11 10 9 8 6 5 5 6 5 5 6 7 7 7 7 5 5 5 4 3 3 3 3
10 11 12 13 13 14 15 16 18 19 19 20 20 20 20 20 20 21 20 20 20 19 18 16 15 14 14 14 14 14 14 12 10 9 8 7 7 8 8 9 8 8 9 10 11 10 8 8 8 8 8 7 7 6 6 6 7 7 6 5 5 5 5 4 4 9 10 10 8 8 8 6 6 6 6 6 6 6 7 7 5 4 4 3 3 3 3 3
9 10 11 11 12 13 14 15 16 18 18 19 20 20 21 21 21 21 21 21 21 20 19 16 15 14 13 14 14 14 14 13 11 9 8 8 8 9 9 9 9 8 9 10 12 11 9 9 9 9 9 9 8 7 6 6 7 7 6 6 7 7 7 6 4 7 8 9 8 8 9 8 7 6 6 7 6 5 7 7 5 4 3 2 2 3 3 3
9 10 10 11 12 12 13 14 15 16 17 18 20 20 21 21 21 21 22 22 21 21 19 17 15 13 13 13 14 14 14 13 12 10 9 9 9 9 9 10 9 9 10 10 12 12 10 10 11 11 10 9 9 9 9 8 8 7 7 7 8 9 9 8 6 6 8 9 8 7 8 9 8 6 6 7 7 6 7 7 6 4 4 2 1 2 3 3
10 11 11 11 12 12 13 13 14 14 15 17 19 20 21 21 21 21 22 23 22 21 20 18 15 13 13 13 14 14 13 13 12 10 9 9 9 9 9 10 10 10 11 11 12 12 12 11 12 12 10 10 11 12 11 11 10 9 9 9 9 10 10 9 8 7 8 9 10 9 9 9 9 7 6 7 7 7 7 7 6 5 4 3 2 2 3 3
11 12 12 12 12 13 13 13 14 14 15 16 18 19 20 21 22 22 22 23 23 22 20 18 15 14 13 13 13 13 13 12 12 10 9 8 9 9 10 10 10 10 11 12 12 12 13 13 13 12 11 12 13 13 12 11 10 9 10 10 11 11 10 10 10 9 9 9 11 11 11 12 10 8 7 7 8 8 9 7 6 6 5 4 3 3 3 3
12 13 13 13 13 13 14 14 14 14 15 15 17 18 20 21 22 22 22 23 23 23 21 18 16 14 13 13 13 13 13 12 12 10 9 7 7 8 9 11 11 11 11 12 12 12 13 14 14 13 13 13 14 13 11 10 10 10 10 10 11 11 10 10 10 10 11 12 13 14 14 14 13 10 9 9 9 9 10 9 7 6 6 5 4 3 4 4
14 14 14 15 15 14 14 14 14 14 15 15 16 17 19 21 21 22 22 23 23 23 22 20 17 14 13 13 13 13 12 12 11 11 9 7 7 8 9 10 12 12 12 12 13 13 13 14 15 14 13 14 14 13 11 9 9 10 9 9 10 10 9 9 10 8 9 13 16 16 15 15 14 12 10 10 10 9 9 11 8 7 7 6 5 4 5 5
17 16 16 16 16 16 15 15 15 15 15 15 16 17 19 20 21 22 23 23 23 23 23 21 17 14 13 12 12 12 12 11 10 10 9 7 6 6 8 9 11 12 12 13 13 13 14 14 14 14 14 14 13 12 11 9 10 9 9 10 10 9 8 8 8 6 7 14 17 16 13 14 14 11 10 11 10 9 8 11 11 9 9 8 6 5 6 6
19 19 18 17 17 17 16 16 16 16 16 16 16 17 18 20 21 22 23 23 24 24 23 21 18 15 13 12 11 11 10 10 9 10 9 8 6 5 5 6 9 11 12 13 13 14 15 14 14 13 14 13 12 12 11 10 10 9 10 10 10 9 8 8 7 5 6 13 17 14 11 13 14 11 10 11 11 9 8 9 11 11 10 10 9 7 7 6
21 21 20 19 18 17 17 16 16 17 17 16 17 17 18 20 21 22 23 23 24 24 23 21 18 16 13 11 10 9 9 9 9 9 9 8 5 4 4 5 7 9 11 13 14 15 15 13 12 12 12 12 12 12 12 11 11 10 11 10 9 8 8 8 8 7 8 11 14 11 10 14 14 11 10 11 11 10 8 9 10 10 10 11 11 10 8 7
22 22 22 21 20 18 18 17 17 18 18 17 17 18 18 20 21 22 23 23 24 24 23 21 19 16 13 11 10 9 8 8 9 8 8 8 5 4 4 3 5 7 10 12 14 16 14 11 11 11 11 12 13 14 13 12 11 10 10 9 8 7 7 8 8 9 10 11 12 9 9 13 13 10 9 11 12 10 9 9 9 8 8 9 11 11 9 7
22 22 23 22 21 19 19 18 18 18 19 18 18 19 19 20 21 22 23 24 24 24 22 21 19 16 14 12 11 9 8 8 8 8 8 7 5 4 3 3 5 7 9 12 14 14 11 8 9 9 11 14 16 16 15 13 11 9 9 8 7 6 6 6 8 11 11 10 10 8 8 9 10 10 9 10 11 10 9 10 10 9 7 7 9 10 9 8
22 22 22 23 22 20 19 19 19 19 20 19 19 20 20 20 21 22 23 24 24 24 23 21 18 16 14 12 10 9 8 7 8 8 7 7 6 4 3 2 3 5 7 10 13 11 9 8 9 11 13 16 18 17 16 14 11 9 8 7 6 6 5 6 8 10 11 10 9 8 6 7 9 10 10 10 10 10 9 10 11 11 9 8 7 7 9 8
21 21 21 22 22 21 19 19 19 20 21 20 20 21 21 21 21 22 23 24 24 24 23 20 18 16 13 12 11 9 8 7 7 7 6 7 6 5 3 2 1 2 4 8 10 10 10 10 12 15 16 18 17 16 14 12 10 9 7 6 6 6 7 8 9 10 11 11 11 9 8 8 8 9 9 10 11 10 10 10 11 12 11 9 7 8 9 10
23 22 22 22 23 22 21 20 20 20 21 21 21 22 23 22 22 22 23 24 23 23 22 20 18 15 13 12 11 9 8 7 7 7 6 6 6 5 4 4 3 1 2 6 10 11 11 13 15 16 17 17 16 15 13 11 10 8 7 6 7 7 8 9 9 9 10 11 12 11 8 7 8 9 9 9 10 10 10 10 11 12 11 10 9 9 11 11
26 25 25 24 24 25 23 22 22 22 22 22 22 23 24 24 23 23 23 23 23 23 21 19 17 14 13 11 10 9 8 7 7 7 6 5 6 6 6 6 5 3 3 6 12 14 13 14 15 15 16 16 16 15 13 11 10 9 8 9 9 9 9 9 8 9 9 10 11 10 9 8 8 9 9 9 10 10 10 10 11 12 12 12 10 9 10 11
30 29 28 27 27 27 26 25 25 24 24 25 24 24 25 25 24 24 23 23 22 22 20 19 16 13 11 10 9 8 7 6 6 7 6 5 6 7 7 7 6 4 4 6 11 14 13 12 12 13 12 12 13 14 13 12 12 11 11 11 10 9 9 9 8 9 10 10 10 11 10 9 9 9 10 10 10 10 10 11 12 12 12 13 12 11 11 12
32 33 32 31 30 29 29 28 28 27 27 27 26 25 26 26 25 24 23 22 21 20 20 18 15 12 10 9 8 8 7 6 6 7 7 6 6 7 8 7 6 5 5 5 9 11 11 9 9 8 7 6 9 11 12 12 12 13 14 14 12 10 10 10 10 10 11 11 10 11 12 12 11 10 10 10 10 10 9 10 11 12 12 13 14 15 13 12
33 34 34 34 33 32 32 31 30 30 29 29 27 26 27 26 25 24 23 22 20 19 19 17 14 13 11 9 7 7 7 6 5 6 7 6 6 7 7 7 7 7 6 5 7 7 6 7 7 6 4 5 7 8 9 11 12 13 14 14 12 12 12 12 12 12 12 12 11 11 12 13 13 12 11 10 10 10 8 8 9 11 12 13 14 16 15 13
31 33 34 34 34 33 33 32 32 31 31 30 28 27 26 26 24 23 22 21 19 18 17 16 14 13 11 8 7 7 6 5 5 6 7 6 6 7 8 8 9 8 7 6 7 6 5 5 6 5 5 5 5 5 7 10 12 13 14 13 13 15 15 15 14 13 14 14 13 12 12 13 13 13 12 11 11 10 9 8 8 9 11 12 13 15 17 15
26 28 30 31 32 32 33 32 32 32 31 29 28 26 26 25 23 21 20 20 18 16 16 15 14 13 11 10 8 8 7 6 6 6 6 5 6 7 8 9 10 10 8 7 7 6 5 5 5 5 5 4 5 6 8 9 9 11 13 13 14 16 16 17 16 15 16 15 14 15 15 13 13 14 13 12 12 11 10 10 9 8 10 11 11 12 16 17
22 23 25 25 26 28 29 30 30 31 30 29 27 26 25 24 23 21 20 19 17 16 16 15 14 13 12 11 9 8 7 7 7 6 6 6 6 7 8 9 10 11 10 9 8 6 5 5 5 5 5 6 8 9 9 8 8 11 13 12 13 14 16 16 15 15 15 13 13 14 15 14 14 14 14 13 13 13 12 12 11 9 9 11 11 10 13 15
19 20 21 21 21 22 23 24 27 28 28 28 27 25 25 24 22 21 19 18 17 16 15 15 15 14 12 11 10 9 8 8 8 8 7 6 6 7 9 9 10 11 11 10 10 8 6 5 6 7 7 8 9 10 10 9 10 12 12 11 12 13 14 14 13 11 10 8 8 9 10 10 12 14 15 15 15 15 14 13 12 10 8 9 11 11 11 13
18 18 18 19 18 18 19 20 22 24 25 25 26 25 25 24 22 20 19 18 17 16 15 14 13 12 11 11 11 10 9 9 9 8 7 7 6 8 10 10 10 10 11 11 10 8 7 6 7 8 8 8 8 9 9 9 11 11 10 9 10 10 12 11 11 9 7 6 8 9 9 8 8 11 14 16 18 18 17 16 14 13 10 9 11 12 12 13
19 18 17 18 18 17 17 18 19 21 21 22 23 23 23 23 21 19 19 19 17 16 14 13 12 11 10 10 10 10 10 10 10 10 9 9 8 9 9 9 9 9 9 9 9 8 8 8 9 9 7 6 6 8 8 8 9 7 7 7 7 8 10 10 10 10 7 8 9 10 10 9 7 9 12 14 18 19 19 19 18 16 14 12 11 11 12 13
20 19 18 18 18 18 18 18 19 19 19 20 20 20 21 21 20 19 21 20 18 16 14 13 13 12 11 11 10 9 10 10 11 12 11 10 9 9 8 8 8 8 8 8 8 9 9 9 8 8 7 6 6 6 6 6 6 5 5 5 6 8 9 10 11 11 10 10 11 12 12 10 8 10 12 13 16 18 19 20 19 19 17 14 13 11 12 13
20 20 19 19 19 19 19 19 19 19 19 19 19 19 19 18 18 21 22 20 18 17 15 14 14 13 14 13 11 11 10 10 11 12 12 11 10 8 8 8 8 8 8 8 8 8 10 10 8 8 7 6 6 5 4 4 5 5 6 5 5 7 8 9 11 12 12 12 13 14 13 11 9 10 12 12 15 17 19 19 20 20 19 18 16 14 13 13
19 19 19 20 20 20 20 20 19 19 19 19 20 19 17 17 20 22 23 21 19 18 16 15 15 14 15 14 13 12 11 11 12 13 13 13 11 10 10 10 9 9 8 8 8 8 9 11 10 8 7 5 4 4 4 5 6 5 6 6 6 8 9 9 11 13 13 13 13 13 13 10 8 9 10 11 13 14 16 17 18 19 20 20 19 17 15 15
18 19 19 20 20 21 21 21 20 20 19 19 19 18 17 19 22 23 23 22 20 19 16 16 17 16 16 15 15 14 13 12 13 13 14 14 14 14 13 12 11 10 10 10 11 11 10 11 11 9 7 5 3 4 5 6 5 3 4 5 5 7 9 10 12 13 13 13 13 12 11 9 8 8 8 8 10 11 12 13 14 17 20 21 21 20 19 17
18 19 19 20 20 20 21 21 21 20 20 19 18 17 18 21 23 24 24 23 22 20 18 18 19 18 17 16 17 16 14 13 14 14 15 15 16 15 14 14 13 12 12 12 12 11 10 11 11 9 8 7 5 5 6 6 4 3 3 4 5 7 8 9 11 12 12 13 13 12 11 10 9 9 8 9 10 10 10 10 11 13 16 20 22 23 22 20
19 19 20 20 20 20 20 20 21 21 20 19 18 18 19 21 23 25 25 24 23 22 20 20 21 20 18 17 18 17 15 15 16 16 17 17 17 16 15 14 13 12 12 12 11 12 11 11 12 11 10 10 8 7 8 7 5 4 4 4 5 6 7 8 9 10 11 12 13 12 11 11 11 10 9 9 9 10 10 11 12 13 13 15 19 23 24 23
20 20 20 20 20 20 20 20 20 21 21 20 19 19 19 21 23 24 25 25 24 23 21 21 21 20 19 18 18 17 16 17 18 17 18 19 17 16 14 14 13 12 12 11 12 14 13 13 14 14 13 12 11 9 8 8 7 6 6 5 5 6 6 7 8 10 11 12 13 12 11 12 12 11 10 10 10 10 11 12 14 15 14 14 15 18 22 24
20 20 20 20 20 20 20 19 20 21 21 21 20 19 20 21 22 23 25 26 25 23 22 21 21 21 21 20 19 18 17 18 19 19 19 19 17 15 14 14 14 13 13 13 15 15 13 13 14 15 14 14 13 10 8 9 9 8 8 7 7 7 7 7 8 10 11 12 12 10 10 11 12 10 10 11 11 11 12 13 14 15 16 15 15 16 18 21
22 22 21 20 19 19 20 19 19 20 20 20 19 19 19 19 20 23 25 26 25 24 23 22 22 22 22 21 20 20 19 19 20 20 20 20 18 15 13 14 14 14 14 15 16 16 14 13 14 15 15 15 14 11 10 10 11 10 9 9 9 10 9 8 9 10 11 12 12 11 11 12 11 10 11 11 11 12 12 12 14 15 16 16 16 16 17 18
25 24 22 21 20 19 19 19 19 20 20 20 20 20 19 19 20 22 24 25 26 25 24 23 23 23 23 23 23 21 20 20 21 20 21 21 20 17 15 15 16 16 16 17 17 17 15 13 13 13 13 14 14 13 12 12 12 11 10 10 11 12 12 11 11 12 11 11 12 12 13 12 12 12 13 13 13 13 12 12 12 14 15 16 16 16 16 17
25 26 25 23 21 19 19 19 19 19 20 21 21 20 20 20 21 22 23 25 26 25 25 25 24 24 25 25 25 24 22 22 21 21 21 21 21 20 19 19 19 19 18 19 19 17 15 14 13 11 10 11 12 12 12 11 11 11 11 12 13 13 14 13 13 13 12 12 13 13 13 12 12 13 13 14 14 14 13 12 11 12 14 16 17 16 16 16
26 27 27 25 22 21 19 19 19 19 20 21 22 21 20 20 21 22 23 25 27 27 26 26 26 26 26 26 26 25 24 23 23 22 21 20 21 22 21 21 21 20 20 20 19 18 16 15 14 13 11 10 9 10 10 10 11 12 12 13 13 14 14 14 15 15 14 14 13 13 13 13 14 14 14 14 15 15 14 13 11 12 13 15 16 17 17 17
27 27 28 27 24 22 20 19 19 19 20 21 21 21 20 20 20 22 24 26 27 28 27 27 28 28 27 27 26 26 25 24 24 24 22 20 21 22 22 22 22 22 21 21 21 20 18 16 15 14 12 11 10 10 10 11 13 14 14 14 14 15 15 16 17 17 17 16 15 13 13 14 16 16 15 14 15 16 15 14 12 12 13 14 16 17 18 18
30 28 28 28 26 24 21 21 20 20 20 21 21 21 21 21 20 21 24 26 27 27 28 29 29 29 29 28 27 27 27 25 25 25 24 22 21 23 23 22 23 23 23 22 22 21 20 19 17 15 13 13 12 12 12 13 15 17 17 17 17 18 18 19 19 19 18 18 17 15 14 14 17 18 18 16 16 16 16 15 14 13 14 15 16 17 18 19
32 31 29 28 27 26 24 22 21 21 21 22 22 21 22 23 21 21 24 27 27 27 28 29 30 31 31 30 28 28 28 28 27 27 26 24 23 23 24 23 23 24 24 23 23 22 21 21 19 17 16 15 15 14 15 16 18 19 20 20 20 21 22 22 22 21 19 18 18 16 14 14 17 17 17 18 18 16 16 16 15 15 15 15 16 17 18 19
33 32 31 29 28 27 25 24 23 22 22 23 23 22 22 23 23 22 24 26 27 27 28 30 31 32 32 31 30 30 29 29 29 29 28 26 25 24 25 24 24 25 25 25 25 24 22 22 22 21 20 20 19 18 19 19 20 20 21 22 22 22 23 23 23 22 20 20 19 17 15 16 17 15 15 17 18 18 17 17 17 17 16 16 17 17 18 18
34 33 32 31 29 28 26 25 24 24 23 23 23 23 22 23 24 24 24 26 27 27 27 29 31 32 32 32 32 31 31 31 30 30 30 29 27 26 26 26 26 27 27 27 27 26 24 24 25 24 23 23 23 22 21 21 21 21 22 23 23 22 22 23 22 22 22 20 20 18 17 18 18 15 13 15 17 18 19 19 19 19 18 18 17 17 18 17
35 34 33 33 31 30 28 26 25 25 24 24 24 24 23 24 25 26 25 26 27 27 28 29 30 32 33 33 33 33 33 33 32 32 31 31 29 28 28 28 28 28 29 28 28 28 26 26 27 26 26 26 25 24 23 23 23 24 24 24 24 23 22 22 22 23 23 21 20 20 19 21 20 16 14 15 16 18 20 20 21 21 20 20 19 18 18 18
37 36 35 34 33 31 30 28 26 25 25 25 24 24 24 24 25 27 26 26 27 28 28 29 30 31 33 34 34 35 35 35 34 33 33 33 31 30 30 30 30 29 30 30 31 30 29 28 28 29 28 28 27 26 26 27 26 25 25 25 25 24 23 22 22 23 23 22 21 21 21 22 23 20 17 17 17 18 20 21 21 21 22 22 21 20 19 19
38 37 36 36 34 33 32 30 28 27 26 25 25 25 25 25 26 27 27 27 27 28 28 29 30 31 32 34 35 36 36 37 36 35 35 35 34 34 33 33 32 31 31 32 33 33 33 31 31 31 31 30 30 30 29 29 27 25 25 24 24 23 23 22 22 22 23 22 22 22 22 23 24 23 20 19 18 18 20 21 21 21 22 22 22 22 20 19
Wind_Direction
34 31 27 24 21 19 17 15 14 14 13 12 10 9 8 7 6 4 3 1 0 359 359 358 359 360 360 360 1 0 356 343 310 281 268 263 261 262 262 254 250 246 240 237 241 243 243 243 234 233 217 161 137 131 130 121 110 113 128 135 149 157 154 152 147 156 142 126 133 121 105 120 126 126 120 113 112 114 114 120 126 122 127 130 118 110 111 107
31 28 25 22 19 17 16 13 12 11 10 9 8 7 6 5 4 2 1 359 358 356 355 355 354 353 350 348 349 350 352 351 336 310 284 270 260 260 262 255 249 243 238 232 233 237 240 241 233 224 216 191 142 143 143 123 108 101 113 130 152 152 154 159 159 165 150 145 149 121 93 120 131 131 124 121 123 122 119 126 135 125 127 131 121 118 122 112
27 25 22 19 17 15 14 12 10 9 8 6 5 5 4 3 1 0 359 357 356 353 352 351 350 347 344 341 338 336 338 339 334 324 302 278 262 256 258 253 247 240 235 232 230 233 235 235 230 218 205 198 159 158 155 123 108 97 97 118 139 145 165 172 173 169 160 164 160 137 104 123 133 134 124 119 124 126 124 135 142 128 124 131 126 127 131 117
24 21 19 16 14 13 12 11 9 8 6 4 3 2 1 1 359 359 357 356 354 351 349 347 345 344 341 338 334 328 325 325 324 323 312 286 264 253 253 252 246 237 233 233 231 229 232 234 222 201 198 197 183 177 163 131 113 99 92 113 125 145 189 203 191 167 160 165 159 146 124 129 135 133 122 114 122 126 127 143 147 135 128 130 130 133 132 115
20 17 15 12 11 11 10 9 7 6 5 3 1 0 360 358 358 357 356 354 352 349 347 345 343 341 339 337 334 327 321 318 319 322 319 295 270 254 250 253 248 236 232 233 233 230 228 234 220 195 197 198 188 190 176 150 131 106 92 119 127 186 200 231 173 157 152 153 150 146 140 137 138 135 127 121 123 129 134 148 150 139 132 132 140 137 124 106
16 14 11 10 8 8 8 7 6 5 3 2 360 358 358 357 356 355 354 353 350 348 346 343 341 340 338 336 333 329 324 317 311 307 303 293 278 260 252 254 251 240 232 231 234 233 223 222 218 203 200 194 174 181 185 165 150 139 129 153 192 252 256 350 155 149 144 149 145 143 149 142 142 141 132 126 128 134 138 145 148 140 131 134 153 139 110 95
11 9 8 7 6 6 6 5 4 3 2 0 358 357 356 355 354 353 352 351 349 347 344 342 340 339 337 335 333 331 326 319 310 299 287 277 272 265 255 252 252 245 233 227 231 232 222 215 215 209 202 190 170 172 184 177 169 170 182 198 226 251 282 319 157 148 149 158 153 149 155 148 149 149 136 127 130 139 141 142 147 143 134 139 155 137 109 94
4 3 3 3 2 2 2 2 1 0 0 359 357 355 353 352 351 350 350 349 348 346 344 341 338 336 335 335 333 332 329 323 314 300 285 269 260 258 255 251 249 246 235 224 223 225 221 216 214 211 206 192 175 177 187 187 188 190 197 212 228 245 267 275 174 157 159 167 165 160 159 158 157 157 142 130 132 146 147 143 146 146 138 150 156 137 116 101
353 354 355 355 355 355 356 356 356 357 357 356 355 354 352 350 349 348 348 348 347 345 342 340 337 334 334 334 333 332 330 326 317 302 285 269 256 250 250 250 245 240 235 223 215 213 214 217 214 210 209 197 182 188 195 191 196 204 216 230 236 244 255 259 218 175 165 168 174 168 159 157 160 162 150 139 142 150 151 147 150 158 155 163 164 137 124 108
338 340 343 344 344 345 347 348 350 352 352 352 353 352 350 348 347 347 347 346 345 344 341 339 336 333 333 333 333 333 332 327 322 308 287 269 255 247 244 246 242 237 234 226 214 203 203 214 215 213 212 200 189 197 200 194 197 207 224 239 245 247 247 249 239 201 175 170 177 172 159 158 161 163 155 148 149 148 153 154 157 170 168 167 179 141 125 109
324 326 329 332 333 334 337 339 342 345 346 347 350 350 349 347 346 346 346 345 344 343 340 337 334 331 330 331 333 334 333 330 327 315 296 273 256 247 240 239 238 235 232 230 219 200 196 207 211 213 210 197 195 202 202 199 203 213 226 238 244 247 242 240 238 219 194 179 175 173 164 163 162 164 162 157 156 147 149 158 163 172 167 165 185 155 134 118
312 315 318 321 324 326 328 330 334 336 338 342 346 347 347 345 344 343 344 344 344 342 339 336 332 328 326 329 333 334 332 332 332 322 305 284 262 247 240 237 233 231 231 234 226 203 194 202 207 209 203 195 198 202 203 205 212 224 235 241 242 242 240 238 236 226 214 196 182 178 170 167 167 166 166 168 169 158 150 156 168 170 162 159 174 167 149 133
305 308 311 314 317 319 321 323 326 327 330 336 342 344 343 343 342 341 342 342 343 342 339 335 331 326 323 326 331 334 332 332 336 332 318 299 274 251 242 238 231 227 226 229 228 212 200 200 203 205 201 197 199 200 205 209 218 231 239 240 239 239 238 232 228 225 220 205 191 184 174 171 175 171 170 177 182 173 154 154 170 168 157 158 167 174 162 150
301 304 307 309 312 315 316 318 320 321 323 330 337 339 340 341 340 340 339 339 340 340 338 335 330 325 322 324 329 333 334 333 338 339 327 308 282 254 241 237 233 229 223 222 224 219 211 205 202 202 200 199 201 201 206 212 220 230 232 228 230 232 230 223 224 233 220 199 192 190 180 176 179 178 177 179 186 188 160 152 166 165 157 161 168 179 172 160
299 301 303 306 308 311 313 314 315 315 318 325 331 334 336 338 338 337 336 337 338 338 337 334 330 325 322 321 326 332 335 337 341 340 328 306 282 256 241 237 234 230 224 219 218 217 217 213 205 201 200 201 202 203 206 214 219 220 216 214 216 217 220 218 221 234 208 189 190 192 187 181 179 180 183 180 186 192 168 158 165 164 162 163 167 182 177 158
297 299 301 302 305 308 309 311 311 310 313 319 325 329 332 334 335 334 334 334 336 336 335 334 330 325 322 319 323 330 336 342 345 341 326 307 291 273 254 245 239 233 224 216 213 215 218 215 210 206 204 203 203 207 209 212 213 210 207 208 208 207 214 211 200 195 177 178 186 191 194 186 177 182 188 182 187 191 177 170 170 168 169 165 166 181 174 150
297 298 299 301 302 304 306 307 307 307 309 314 319 323 326 330 331 330 331 332 333 333 333 332 328 324 322 319 320 329 338 342 344 340 327 310 302 294 278 260 252 241 228 216 210 215 217 213 212 209 206 204 204 212 216 212 209 208 211 212 205 202 209 208 190 170 159 166 179 190 197 187 177 183 185 179 188 190 182 182 179 175 174 169 170 176 168 149
296 297 298 300 301 302 302 303 304 303 305 309 313 317 321 326 327 326 328 330 330 330 330 329 326 323 320 315 315 326 336 340 340 340 328 312 304 300 290 276 263 244 227 214 209 216 215 209 211 208 204 203 205 212 217 216 214 213 218 219 212 207 209 212 195 173 162 166 176 177 177 176 175 181 179 178 189 193 186 184 186 189 184 175 176 173 164 156
297 297 297 298 299 300 300 300 300 300 302 305 308 312 316 321 323 322 324 326 327 328 328 326 324 322 317 309 309 319 335 341 337 334 324 309 300 293 289 290 280 251 227 212 210 216 205 193 204 201 198 204 208 214 216 216 216 216 221 223 222 220 213 215 207 186 174 176 186 183 164 166 175 178 175 177 186 194 192 184 189 202 204 193 185 173 163 164
297 297 297 297 298 298 298 298 298 298 299 302 305 307 311 315 318 318 320 323 324 324 325 325 323 320 314 307 307 318 335 343 335 327 315 300 288 281 275 290 296 264 229 210 210 207 177 169 188 188 194 206 212 217 218 216 214 215 222 226 232 237 234 233 228 209 189 179 188 194 178 173 177 179 179 175 180 189 191 188 192 199 205 206 195 175 169 173
297 297 297 297 297 297 297 296 296 296 297 299 302 304 306 310 313 314 317 320 320 320 322 323 321 318 316 310 308 314 329 341 338 326 307 289 279 274 261 249 276 266 220 201 197 181 161 171 187 189 196 208 214 218 219 215 212 217 225 231 240 247 250 246 244 234 214 196 191 185 176 180 180 183 188 185 185 190 190 195 200 201 202 201 195 185 180 180
294 295 295 295 295 296 296 296 295 295 295 297 300 301 303 306 309 311 313 315 316 317 319 320 319 319 317 312 307 309 321 333 334 321 302 283 269 259 243 226 211 203 194 179 167 158 167 188 196 199 206 213 218 219 217 213 211 215 220 227 233 238 244 246 249 252 238 220 207 188 174 182 185 186 194 196 197 198 198 202 206 208 208 203 198 192 184 184
290 290 290 291 292 292 293 294 294 294 294 295 297 299 300 303 305 307 309 310 312 314 316 318 317 317 314 310 308 309 317 324 323 311 296 277 256 242 234 223 201 177 172 162 156 161 180 198 203 208 216 221 223 222 218 214 213 210 213 223 228 231 239 245 252 257 249 236 223 206 190 188 188 188 193 199 204 207 209 211 209 211 214 210 206 201 190 187
288 288 287 287 288 289 290 291 291 292 292 292 295 296 297 299 301 303 305 307 309 311 313 314 314 314 310 308 309 312 318 320 312 298 280 262 244 234 229 220 201 176 166 163 163 171 187 199 204 212 222 227 228 228 221 213 210 203 206 218 219 222 233 238 241 248 250 245 237 227 216 208 202 197 195 196 201 211 221 224 219 214 218 215 206 208 203 191
286 286 286 285 285 286 287 288 289 289 290 291 293 294 294 296 298 300 302 303 305 307 308 310 311 311 308 303 304 309 316 314 298 281 266 252 242 238 228 210 192 171 162 171 173 179 188 194 203 214 229 231 223 224 218 209 207 201 207 217 214 211 221 229 232 239 248 249 244 238 231 227 221 212 209 204 199 208 222 233 233 223 223 220 205 208 213 198
285 284 284 284 284 284 285 286 287 288 289 290 292 292 292 293 294 296 298 299 301 303 304 306 307 308 305 300 296 299 308 309 291 271 252 234 224 228 221 199 183 171 159 164 173 174 179 189 200 208 211 206 207 210 203 199 200 202 212 222 222 220 222 228 232 236 244 247 245 242 236 236 235 226 225 222 213 214 219 230 238 229 225 223 213 212 218 210
287 284 283 283 282 282 282 283 285 286 287 289 290 290 290 290 291 292 294 294 296 299 300 301 302 304 302 294 285 285 292 296 286 269 250 230 211 209 210 195 181 172 160 162 172 163 161 180 193 196 191 186 194 203 201 198 197 204 215 223 230 234 232 235 238 237 240 243 242 242 236 235 240 236 232 233 229 226 224 222 229 230 225 226 223 218 220 220
293 289 287 284 283 282 281 281 282 284 285 286 287 287 286 287 287 287 288 289 290 293 294 295 299 300 297 290 282 278 277 277 275 266 253 233 211 208 208 195 181 174 167 167 172 163 159 176 189 193 190 185 203 222 227 218 212 222 230 230 235 240 237 239 243 242 244 246 246 246 242 235 241 243 237 237 238 235 232 225 225 235 237 238 236 223 219 224
299 294 291 289 287 283 282 281 280 281 283 283 284 284 283 283 283 283 284 284 284 286 288 290 294 295 293 289 283 276 269 265 262 258 251 233 211 205 203 198 188 180 174 168 170 170 168 177 190 193 194 208 225 241 254 256 251 252 253 246 240 240 241 246 251 251 250 249 245 248 248 240 242 249 246 243 242 238 236 232 229 236 247 255 254 236 223 226
304 299 295 295 294 290 286 283 280 280 280 281 281 280 279 279 278 278 280 279 278 280 283 287 292 294 294 292 287 278 267 255 248 247 244 234 219 203 198 202 197 185 176 171 175 181 180 183 191 196 206 223 242 259 271 273 265 259 256 249 242 240 245 254 263 262 252 245 244 251 257 248 245 251 251 249 247 242 240 238 235 233 237 252 258 248 233 229
309 306 303 303 301 297 293 287 282 280 280 279 279 277 276 274 273 274 274 272 272 274 279 286 290 293 295 295 291 284 273 253 237 231 226 222 217 203 195 197 195 183 174 173 178 181 182 189 195 203 217 231 250 262 265 266 262 258 254 247 246 249 254 262 272 274 265 257 260 264 268 265 257 256 253 250 250 247 243 241 239 236 229 234 247 247 240 233
313 313 311 308 307 303 300 294 288 286 284 280 278 276 273 270 269 268 266 265 265 268 274 281 283 284 285 286 285 283 275 254 231 218 215 212 206 201 197 189 180 175 172 170 170 172 181 191 196 205 221 235 249 255 256 257 257 257 258 256 254 260 269 276 282 283 279 272 272 273 272 272 273 267 257 250 250 250 247 243 240 238 233 228 235 243 243 239
316 317 315 311 309 307 304 299 295 292 288 283 279 275 270 268 266 262 259 258 258 261 265 269 272 274 273 273 274 276 270 253 232 216 211 209 207 208 204 183 166 166 168 163 159 169 183 190 194 205 215 220 231 242 245 250 254 250 253 262 265 269 279 288 290 290 288 283 280 279 276 275 277 272 261 251 249 250 249 245 241 240 237 231 228 234 241 242
316 316 315 312 310 307 304 301 298 294 289 285 280 274 271 267 259 254 253 253 252 254 256 258 261 263 265 268 270 270 266 254 235 218 209 207 211 214 202 183 170 168 171 166 162 174 187 190 192 204 213 210 215 234 243 250 257 254 252 254 261 273 280 283 286 287 283 281 279 278 278 278 275 269 261 254 251 250 249 248 243 241 240 236 230 227 232 238
313 313 313 311 309 306 304 301 298 294 289 286 281 276 271 261 251 248 248 248 248 248 248 250 249 250 257 262 263 262 262 254 239 221 208 203 205 205 196 189 184 180 179 179 182 189 195 198 199 204 215 218 222 245 262 267 262 261 268 264 257 271 278 277 279 280 279 279 277 277 279 276 269 263 257 254 251 248 249 249 245 241 240 238 235 229 227 230
309 308 309 308 306 304 302 300 297 293 289 285 283 277 266 255 249 246 246 245 244 244 242 242 244 243 247 253 255 256 256 249 239 226 212 204 203 203 199 196 195 194 196 199 200 198 197 206 212 211 216 225 243 259 269 272 268 275 290 289 285 288 291 289 286 286 289 290 287 285 283 279 273 269 261 254 248 244 248 251 248 243 239 238 238 235 230 229
309 307 306 305 303 302 300 298 295 291 287 284 281 274 262 255 251 247 245 244 241 240 238 236 240 242 243 246 250 254 255 245 238 228 216 211 210 209 208 207 206 205 209 214 212 203 197 209 221 222 223 230 237 250 262 268 277 298 306 318 325 313 308 306 298 297 301 301 298 296 294 289 283 275 265 258 253 251 257 264 262 253 243 238 237 237 235 232
310 307 306 305 303 302 300 298 294 289 285 281 277 271 263 258 255 251 248 246 242 239 235 233 238 242 242 244 247 254 256 245 237 228 217 217 220 218 219 221 218 216 220 222 219 213 209 215 227 232 234 238 236 236 251 261 267 277 285 308 314 307 310 313 307 309 313 310 305 305 306 300 286 274 264 260 263 265 268 270 270 268 261 248 240 238 238 236
311 308 307 307 306 304 301 298 294 289 285 280 276 272 267 263 260 257 251 247 243 239 234 233 237 240 241 242 245 250 251 244 239 231 221 222 224 223 227 232 227 227 232 232 226 222 218 220 230 236 236 239 235 228 241 256 259 264 275 289 295 299 312 316 314 317 320 315 310 310 314 306 292 283 276 271 272 272 269 268 269 271 271 266 255 245 241 239
315 312 310 309 308 306 304 299 295 291 286 282 279 276 273 270 266 261 254 249 246 240 235 233 235 238 239 239 241 244 243 241 241 237 229 227 226 222 229 233 225 224 230 230 228 229 226 224 230 237 236 234 232 226 233 250 261 269 280 293 300 307 318 321 318 319 319 317 314 313 315 309 299 291 283 276 274 272 270 268 269 271 272 272 268 258 250 244
321 317 315 312 310 308 305 301 296 291 286 282 279 276 273 269 264 259 255 251 248 244 238 234 234 236 237 238 238 237 236 237 239 239 237 235 230 223 227 227 215 210 216 223 228 233 233 230 230 234 235 232 231 233 238 249 262 274 289 301 306 309 316 319 317 315 314 313 311 307 308 306 298 287 279 276 275 274 270 266 264 267 270 272 271 264 257 252
322 321 318 315 313 310 306 302 296 290 285 280 276 272 269 264 259 257 254 252 249 247 242 236 234 234 235 236 237 235 233 232 235 239 241 240 235 226 221 217 208 204 209 215 223 231 235 237 237 236 235 230 229 234 241 250 262 275 291 298 300 304 309 312 313 313 312 309 306 302 303 303 295 285 277 275 274 273 271 267 262 261 265 269 270 265 257 254
320 320 319 317 315 311 306 301 295 290 284 278 274 272 270 265 260 257 253 250 248 247 243 239 235 233 232 234 237 237 234 232 232 235 238 241 239 231 224 219 215 213 215 216 221 229 236 241 243 240 236 230 227 231 239 251 265 278 288 290 292 297 301 306 310 311 311 308 302 299 300 298 292 284 276 271 270 271 272 270 264 259 259 263 266 264 255 251
316 317 317 316 314 311 306 300 294 289 284 278 274 272 270 268 264 258 252 248 246 245 242 240 237 234 232 234 236 238 237 235 234 234 237 238 238 236 232 227 225 225 224 223 224 230 237 243 243 243 246 245 242 244 251 260 269 277 284 287 289 291 297 304 307 307 309 305 297 294 294 291 287 282 277 271 267 267 270 270 264 256 254 258 262 260 252 248
311 312 313 313 312 309 305 299 293 287 282 278 274 271 269 267 266 260 253 248 246 245 242 240 239 237 236 236 237 240 242 240 238 239 241 241 239 239 237 234 233 235 234 232 231 231 236 241 241 245 254 259 259 261 267 274 278 281 287 290 289 290 294 298 299 302 302 296 290 289 287 286 285 282 279 274 268 266 267 267 263 255 250 252 257 257 250 245
307 308 308 309 308 307 303 297 292 285 280 277 273 270 268 265 264 260 256 253 249 245 241 240 241 239 238 237 237 240 243 242 240 240 243 246 244 242 240 238 238 239 239 240 240 238 238 242 245 249 256 260 263 268 275 282 284 285 286 286 286 286 288 289 290 293 292 287 285 285 284 286 286 282 280 277 270 266 266 267 266 261 254 251 253 255 251 245
304 304 305 305 304 303 300 295 290 284 278 275 272 268 266 264 262 258 257 255 252 245 240 240 240 239 238 238 238 238 241 242 240 239 241 245 246 244 243 242 241 242 243 245 247 246 245 247 251 253 255 258 261 265 269 272 275 277 277 279 280 282 282 282 282 282 280 278 280 281 284 287 284 282 283 280 274 269 267 267 268 267 264 260 256 255 252 247
301 301 302 302 300 299 297 293 289 283 277 274 271 266 263 262 261 257 254 255 254 248 242 239 239 239 239 239 239 239 240 241 241 240 239 242 244 245 245 245 246 247 248 249 251 253 252 253 256 257 258 261 261 261 263 267 271 273 273 274 276 278 278 277 276 275 273 273 276 279 283 284 282 283 286 284 280 275 269 267 267 268 268 267 262 259 255 250
299 298 298 298 297 295 293 289 285 281 277 274 271 266 260 258 258 256 254 254 254 251 246 241 239 240 240 239 239 239 240 241 241 241 241 241 243 244 245 247 250 252 253 255 256 258 259 260 261 262 263 265 265 266 268 272 275 275 274 274 275 275 275 274 272 271 269 270 273 275 279 283 283 283 287 288 286 280 273 269 267 266 265 265 264 262 259 254
295 294 293 293 292 291 288 285 281 278 276 273 269 264 259 255 255 255 253 253 253 252 249 245 241 239 239 239 239 239 240 241 242 243 244 244 244 243 243 247 251 254 256 258 259 261 262 262 264 265 266 268 270 271 274 278 281 281 279 277 277 277 275 273 271 268 266 267 270 271 276 283 283 282 286 290 288 283 278 273 270 266 263 261 262 261 260 257
292 291 289 287 286 285 284 281 277 274 273 271 268 263 257 253 253 254 253 251 252 252 250 247 244 241 239 238 239 239 240 242 243 244 246 247 246 245 244 246 250 253 256 258 260 262 262 262 263 265 267 269 271 273 277 281 285 286 285 281 280 279 278 274 270 267 266 267 269 271 275 280 281 282 288 289 286 286 284 281 276 271 265 260 259 260 260 259
289 287 285 283 281 280 280 278 275 272 269 268 266 262 257 252 251 253 253 251 250 251 250 248 246 243 240 238 238 239 240 241 243 244 245 247 248 248 248 249 251 252 253 256 259 261 262 262 263 265 266 268 271 274 277 280 285 288 287 283 280 279 277 274 270 266 265 266 267 270 274 276 278 283 288 288 286 286 286 285 282 277 269 262 258 258 260 260